Time,TemperatureF,DewpointF,PressureIn,WindDirection,WindDirectionDegrees,WindSpeedMPH,WindSpeedGustMPH,Humidity,HourlyPrecipIn,Conditions,Clouds,dailyrainin,SoftwareType,DateUTC
2013-02-08 00:01:00,25.5,19.6,29.57,NE,45,0.0,0.0,78,0.00,,,0.00,WUHU21623XXSP,2013-02-08 06:01:00,
2013-02-08 00:06:00,25.5,19.6,29.57,NE,45,0.0,0.0,78,0.00,,,0.00,WUHU21623XXSP,2013-02-08 06:06:00,
2013-02-08 00:11:00,25.5,19.6,29.57,NE,45,0.0,0.0,78,0.00,,,0.00,WUHU21623XXSP,2013-02-08 06:11:00,
2013-02-08 00:16:00,25.5,19.6,29.58,NE,45,0.0,0.0,78,0.00,,,0.00,WUHU21623XXSP,2013-02-08 06:16:00,
2013-02-08 00:21:00,25.5,19.6,29.58,NE,45,0.0,0.0,78,0.00,,,0.00,WUHU21623XXSP,2013-02-08 06:21:00,
2013-02-08 00:26:00,25.5,19.6,29.58,NE,45,0.0,0.0,78,0.00,,,0.00,WUHU21623XXSP,2013-02-08 06:26:00,
2013-02-08 00:31:00,25.5,19.6,29.58,NE,45,0.0,0.0,78,0.00,,,0.00,WUHU21623XXSP,2013-02-08 06:31:00,
2013-02-08 00:36:00,25.5,19.6,29.59,NE,45,0.0,0.0,78,0.00,,,0.00,WUHU21623XXSP,2013-02-08 06:36:00,
2013-02-08 00:41:00,25.3,19.4,29.59,NE,45,0.0,0.0,78,0.00,,,0.00,WUHU21623XXSP,2013-02-08 06:41:00,
2013-02-08 00:46:00,25.3,19.4,29.59,NE,45,0.0,0.0,78,0.00,,,0.00,WUHU21623XXSP,2013-02-08 06:46:00,
2013-02-08 00:51:00,25.2,19.3,29.59,NE,45,0.0,0.0,78,0.00,,,0.00,WUHU21623XXSP,2013-02-08 06:51:00,
2013-02-08 00:56:00,25.2,19.3,29.59,NE,45,0.0,0.0,78,0.00,,,0.00,WUHU21623XXSP,2013-02-08 06:56:00,
2013-02-08 01:01:00,25.2,19.3,29.59,NE,45,0.0,0.0,78,0.00,,,0.00,WUHU21623XXSP,2013-02-08 07:01:00,
2013-02-08 01:06:00,25.2,19.3,29.59,NE,45,0.0,0.0,78,0.00,,,0.00,WUHU21623XXSP,2013-02-08 07:06:00,
2013-02-08 01:11:00,25.2,19.3,29.59,NE,45,0.0,0.0,78,0.00,,,0.00,WUHU21623XXSP,2013-02-08 07:11:00,
2013-02-08 01:16:00,25.2,19.3,29.60,NE,45,0.0,0.0,78,0.00,,,0.00,WUHU21623XXSP,2013-02-08 07:16:00,
2013-02-08 01:21:00,25.0,19.1,29.61,NE,45,0.0,0.0,78,0.00,,,0.00,WUHU21623XXSP,2013-02-08 07:21:00,
2013-02-08 01:26:00,25.0,19.1,29.61,NE,45,0.0,0.0,78,0.00,,,0.00,WUHU21623XXSP,2013-02-08 07:26:00,
2013-02-08 01:31:00,25.2,19.3,29.61,NE,45,0.0,0.0,78,0.00,,,0.00,WUHU21623XXSP,2013-02-08 07:31:00,
2013-02-08 01:37:00,25.0,19.1,29.61,NE,45,0.0,0.0,78,0.00,,,0.00,WUHU21623XXSP,2013-02-08 07:37:00,
2013-02-08 01:42:00,25.0,19.1,29.62,East,90,0.0,0.0,78,0.00,,,0.00,WUHU21623XXSP,2013-02-08 07:42:00,
2013-02-08 01:47:00,25.0,19.1,29.62,ENE,67,0.0,0.0,78,0.00,,,0.00,WUHU21623XXSP,2013-02-08 07:47:00,
2013-02-08 01:52:00,25.0,19.1,29.62,ENE,67,0.0,0.0,78,0.00,,,0.00,WUHU21623XXSP,2013-02-08 07:52:00,
2013-02-08 01:57:00,25.0,19.1,29.62,ENE,67,0.0,0.0,78,0.00,,,0.00,WUHU21623XXSP,2013-02-08 07:57:00,
2013-02-08 02:02:00,25.0,19.1,29.62,ENE,67,0.0,0.0,78,0.00,,,0.00,WUHU21623XXSP,2013-02-08 08:02:00,
2013-02-08 02:07:00,25.0,19.1,29.62,ENE,67,0.0,0.0,78,0.00,,,0.00,WUHU21623XXSP,2013-02-08 08:07:00,
2013-02-08 02:12:00,25.0,19.1,29.62,ENE,67,0.0,0.0,78,0.00,,,0.00,WUHU21623XXSP,2013-02-08 08:12:00,
2013-02-08 02:17:00,24.8,18.9,29.63,East,90,0.0,0.0,78,0.00,,,0.00,WUHU21623XXSP,2013-02-08 08:17:00,
2013-02-08 02:22:00,24.6,18.8,29.63,ENE,67,0.0,0.0,78,0.00,,,0.00,WUHU21623XXSP,2013-02-08 08:22:00,
2013-02-08 02:27:00,24.8,18.9,29.63,ENE,67,0.0,0.0,78,0.00,,,0.00,WUHU21623XXSP,2013-02-08 08:27:00,
2013-02-08 02:32:00,25.0,18.8,29.63,ENE,67,0.0,0.0,77,0.00,,,0.00,WUHU21623XXSP,2013-02-08 08:32:00,
2013-02-08 02:37:00,25.0,18.8,29.63,ENE,67,0.0,0.0,77,0.00,,,0.00,WUHU21623XXSP,2013-02-08 08:37:00,
2013-02-08 02:42:00,25.0,18.8,29.63,ENE,67,0.0,0.0,77,0.00,,,0.00,WUHU21623XXSP,2013-02-08 08:42:00,
2013-02-08 02:47:00,24.8,18.6,29.63,ENE,67,0.0,0.0,77,0.00,,,0.00,WUHU21623XXSP,2013-02-08 08:47:00,
2013-02-08 02:52:00,24.6,18.4,29.63,ENE,67,0.0,0.0,77,0.00,,,0.00,WUHU21623XXSP,2013-02-08 08:52:00,
2013-02-08 02:57:00,24.6,18.4,29.63,ENE,67,0.0,0.0,77,0.00,,,0.00,WUHU21623XXSP,2013-02-08 08:57:00,
2013-02-08 03:02:00,24.6,18.4,29.62,ENE,67,0.0,0.0,77,0.00,,,0.00,WUHU21623XXSP,2013-02-08 09:02:00,
2013-02-08 03:07:00,24.6,18.8,29.62,ENE,67,0.0,0.0,78,0.00,,,0.00,WUHU21623XXSP,2013-02-08 09:07:00,
2013-02-08 03:12:00,24.4,18.8,29.61,ENE,67,0.0,0.0,78,0.00,,,0.00,WUHU21623XXSP,2013-02-08 09:12:00,
2013-02-08 03:17:00,24.4,18.2,29.61,East,90,0.0,0.0,77,0.00,,,0.00,WUHU21623XXSP,2013-02-08 09:17:00,
2013-02-08 03:22:00,24.4,18.2,29.61,East,90,0.0,0.0,77,0.00,,,0.00,WUHU21623XXSP,2013-02-08 09:22:00,
2013-02-08 03:27:00,24.4,18.2,29.61,East,90,0.0,0.0,77,0.00,,,0.00,WUHU21623XXSP,2013-02-08 09:27:00,
2013-02-08 03:32:00,24.4,18.2,29.62,East,90,0.0,0.0,77,0.00,,,0.00,WUHU21623XXSP,2013-02-08 09:32:00,
2013-02-08 03:37:00,24.4,18.2,29.62,East,90,0.0,0.0,77,0.00,,,0.00,WUHU21623XXSP,2013-02-08 09:37:00,
2013-02-08 03:42:00,24.3,18.1,29.62,East,90,0.0,0.0,77,0.00,,,0.00,WUHU21623XXSP,2013-02-08 09:42:00,
2013-02-08 03:47:00,24.1,17.9,29.62,East,90,0.0,0.0,77,0.00,,,0.00,WUHU21623XXSP,2013-02-08 09:47:00,
2013-02-08 03:52:00,24.1,17.9,29.62,East,90,0.0,0.0,77,0.00,,,0.00,WUHU21623XXSP,2013-02-08 09:52:00,
2013-02-08 03:57:00,24.1,17.9,29.63,East,90,0.0,0.0,77,0.00,,,0.00,WUHU21623XXSP,2013-02-08 09:57:00,
2013-02-08 04:02:00,23.9,17.7,29.63,East,90,0.0,0.0,77,0.00,,,0.00,WUHU21623XXSP,2013-02-08 10:02:00,
2013-02-08 04:07:00,23.9,17.7,29.62,East,90,0.0,0.0,77,0.00,,,0.00,WUHU21623XXSP,2013-02-08 10:07:00,
2013-02-08 04:12:00,23.7,17.5,29.63,East,90,0.0,0.0,77,0.00,,,0.00,WUHU21623XXSP,2013-02-08 10:12:00,
2013-02-08 04:17:00,23.7,17.5,29.62,East,90,0.0,0.0,77,0.00,,,0.00,WUHU21623XXSP,2013-02-08 10:17:00,
2013-02-08 04:23:00,23.7,17.5,29.63,East,90,0.0,0.0,77,0.00,,,0.00,WUHU21623XXSP,2013-02-08 10:23:00,
2013-02-08 04:28:00,23.7,17.5,29.63,East,90,0.0,0.0,77,0.00,,,0.00,WUHU21623XXSP,2013-02-08 10:28:00,
2013-02-08 04:33:00,23.7,17.5,29.63,East,90,0.0,0.0,77,0.00,,,0.00,WUHU21623XXSP,2013-02-08 10:33:00,
2013-02-08 04:38:00,23.7,17.5,29.63,ENE,67,0.0,0.0,77,0.00,,,0.00,WUHU21623XXSP,2013-02-08 10:38:00,
2013-02-08 04:43:00,23.7,17.5,29.63,ENE,67,0.0,0.0,77,0.00,,,0.00,WUHU21623XXSP,2013-02-08 10:43:00,
2013-02-08 04:48:00,23.7,17.5,29.63,ENE,67,0.0,0.0,77,0.00,,,0.00,WUHU21623XXSP,2013-02-08 10:48:00,
2013-02-08 04:53:00,23.5,17.4,29.63,ENE,67,0.0,0.0,77,0.00,,,0.00,WUHU21623XXSP,2013-02-08 10:53:00,
2013-02-08 04:58:00,23.5,17.4,29.64,ENE,67,0.0,0.0,77,0.00,,,0.00,WUHU21623XXSP,2013-02-08 10:58:00,
2013-02-08 05:03:00,23.5,17.4,29.64,ENE,67,0.0,0.0,77,0.00,,,0.00,WUHU21623XXSP,2013-02-08 11:03:00,
2013-02-08 05:08:00,23.4,17.2,29.64,ENE,67,0.0,0.0,77,0.00,,,0.00,WUHU21623XXSP,2013-02-08 11:08:00,
2013-02-08 05:13:00,23.4,17.2,29.65,ENE,67,0.0,0.0,77,0.00,,,0.00,WUHU21623XXSP,2013-02-08 11:13:00,
2013-02-08 05:18:00,23.2,17.0,29.65,ENE,67,0.0,0.0,77,0.00,,,0.00,WUHU21623XXSP,2013-02-08 11:18:00,
2013-02-08 05:23:00,23.2,17.0,29.64,ENE,67,0.0,0.0,77,0.00,,,0.00,WUHU21623XXSP,2013-02-08 11:23:00,
2013-02-08 05:28:00,23.2,17.0,29.65,ENE,67,0.0,0.0,77,0.00,,,0.00,WUHU21623XXSP,2013-02-08 11:28:00,
2013-02-08 05:33:00,23.2,17.0,29.65,ENE,67,0.0,0.0,77,0.00,,,0.00,WUHU21623XXSP,2013-02-08 11:33:00,
2013-02-08 05:38:00,23.2,17.0,29.65,ENE,67,0.0,0.0,77,0.00,,,0.00,WUHU21623XXSP,2013-02-08 11:38:00,
2013-02-08 05:43:00,23.2,17.0,29.65,ENE,67,0.0,0.0,77,0.00,,,0.00,WUHU21623XXSP,2013-02-08 11:43:00,
2013-02-08 05:48:00,23.2,17.0,29.65,ENE,67,0.0,0.0,77,0.00,,,0.00,WUHU21623XXSP,2013-02-08 11:48:00,
2013-02-08 05:53:00,23.2,17.0,29.66,ENE,67,0.0,0.0,77,0.00,,,0.00,WUHU21623XXSP,2013-02-08 11:53:00,
2013-02-08 05:58:00,23.2,17.0,29.66,ENE,67,0.0,0.0,77,0.00,,,0.00,WUHU21623XXSP,2013-02-08 11:58:00,
2013-02-08 06:03:00,23.0,16.9,29.65,ENE,67,0.0,0.0,77,0.00,,,0.00,WUHU21623XXSP,2013-02-08 12:03:00,
2013-02-08 06:08:00,23.0,16.9,29.66,ENE,67,0.0,0.0,77,0.00,,,0.00,WUHU21623XXSP,2013-02-08 12:08:00,
2013-02-08 06:13:00,22.8,16.7,29.66,ENE,67,0.0,0.0,77,0.00,,,0.00,WUHU21623XXSP,2013-02-08 12:13:00,
2013-02-08 06:19:00,22.8,16.7,29.66,ENE,67,0.0,0.0,77,0.00,,,0.00,WUHU21623XXSP,2013-02-08 12:19:00,
2013-02-08 06:24:00,22.8,16.7,29.66,ENE,67,0.0,0.0,77,0.00,,,0.00,WUHU21623XXSP,2013-02-08 12:24:00,
2013-02-08 06:29:00,22.8,16.7,29.66,ENE,67,0.0,0.0,77,0.00,,,0.00,WUHU21623XXSP,2013-02-08 12:29:00,
2013-02-08 06:34:00,22.8,16.7,29.66,ENE,67,0.0,0.0,77,0.00,,,0.00,WUHU21623XXSP,2013-02-08 12:34:00,
2013-02-08 06:39:00,22.8,16.7,29.67,ENE,67,0.0,0.0,77,0.00,,,0.00,WUHU21623XXSP,2013-02-08 12:39:00,
2013-02-08 06:44:00,22.8,16.7,29.66,ENE,67,0.0,0.0,77,0.00,,,0.00,WUHU21623XXSP,2013-02-08 12:44:00,
2013-02-08 06:49:00,22.8,16.7,29.66,ENE,67,0.0,0.0,77,0.00,,,0.00,WUHU21623XXSP,2013-02-08 12:49:00,
2013-02-08 06:54:00,22.8,16.7,29.67,ENE,67,0.0,0.0,77,0.00,,,0.00,WUHU21623XXSP,2013-02-08 12:54:00,
2013-02-08 06:59:00,22.6,16.7,29.67,ENE,67,0.0,0.0,77,0.00,,,0.00,WUHU21623XXSP,2013-02-08 12:59:00,
2013-02-08 07:04:00,22.6,16.5,29.67,ENE,67,0.0,0.0,77,0.00,,,0.00,WUHU21623XXSP,2013-02-08 13:04:00,
2013-02-08 07:09:00,22.6,16.5,29.68,ENE,67,0.0,0.0,77,0.00,,,0.00,WUHU21623XXSP,2013-02-08 13:09:00,
2013-02-08 07:14:00,22.6,16.5,29.67,ENE,67,0.0,0.0,77,0.00,,,0.00,WUHU21623XXSP,2013-02-08 13:14:00,
2013-02-08 07:18:00,22.6,16.5,29.68,ENE,67,0.0,0.0,77,0.00,,,0.00,WUHU21623XXSP,2013-02-08 13:18:00,
2013-02-08 07:19:00,22.6,16.5,29.68,ENE,67,0.0,0.0,77,0.00,,,0.00,WUHU21623XXSP,2013-02-08 13:19:00,
2013-02-08 07:25:00,22.6,16.5,29.67,ENE,67,0.0,0.0,77,0.00,,,0.00,WUHU21623XXSP,2013-02-08 13:25:00,
2013-02-08 07:31:00,22.6,16.5,29.67,ENE,67,0.0,0.0,77,0.00,,,0.00,WUHU21623XXSP,2013-02-08 13:31:00,
2013-02-08 07:36:00,22.6,16.5,29.68,ENE,67,0.0,0.0,77,0.00,,,0.00,WUHU21623XXSP,2013-02-08 13:36:00,
2013-02-08 07:50:00,22.6,16.5,29.69,ENE,67,0.0,0.0,77,0.00,,,0.00,WUHU21623XXSP,2013-02-08 13:50:00,
2013-02-08 07:55:00,22.8,16.4,29.68,ENE,67,0.0,0.0,76,0.00,,,0.00,WUHU21623XXSP,2013-02-08 13:55:00,
2013-02-08 08:00:00,23.0,16.6,29.69,ENE,67,0.0,0.0,76,0.00,,,0.00,WUHU21623XXSP,2013-02-08 14:00:00,
2013-02-08 08:05:00,23.0,16.6,29.69,ENE,67,0.0,0.0,76,0.00,,,0.00,WUHU21623XXSP,2013-02-08 14:05:00,
2013-02-08 08:10:00,23.2,16.6,29.68,ESE,112,0.0,0.0,76,0.00,,,0.00,WUHU21623XXSP,2013-02-08 14:10:00,
2013-02-08 08:15:00,23.2,16.7,29.68,ESE,112,0.0,0.0,76,0.00,,,0.00,WUHU21623XXSP,2013-02-08 14:15:00,
2013-02-08 08:20:00,23.4,16.9,29.69,ESE,112,0.0,0.0,76,0.00,,,0.00,WUHU21623XXSP,2013-02-08 14:20:00,
2013-02-08 08:25:00,23.5,17.1,29.68,East,90,0.0,0.0,76,0.00,,,0.00,WUHU21623XXSP,2013-02-08 14:25:00,
2013-02-08 08:30:00,23.5,17.1,29.69,East,90,0.0,0.0,76,0.00,,,0.00,WUHU21623XXSP,2013-02-08 14:30:00,
2013-02-08 08:35:00,23.5,17.1,29.69,East,90,0.0,0.0,76,0.00,,,0.00,WUHU21623XXSP,2013-02-08 14:35:00,
2013-02-08 08:40:00,23.5,16.8,29.69,East,90,0.0,0.0,75,0.00,,,0.00,WUHU21623XXSP,2013-02-08 14:40:00,
2013-02-08 08:46:00,23.7,16.9,29.69,East,90,0.0,0.0,75,0.00,,,0.00,WUHU21623XXSP,2013-02-08 14:46:00,
2013-02-08 08:51:00,23.9,17.1,29.69,ESE,112,0.0,0.0,75,0.00,,,0.00,WUHU21623XXSP,2013-02-08 14:51:00,
2013-02-08 08:56:00,23.9,17.1,29.69,ESE,112,0.0,0.0,75,0.00,,,0.00,WUHU21623XXSP,2013-02-08 14:56:00,
2013-02-08 09:01:00,24.1,17.3,29.69,ESE,112,0.0,0.0,75,0.00,,,0.00,WUHU21623XXSP,2013-02-08 15:01:00,
2013-02-08 09:06:00,24.4,17.6,29.69,ESE,112,0.0,0.0,75,0.00,,,0.00,WUHU21623XXSP,2013-02-08 15:06:00,
2013-02-08 09:11:00,24.4,17.6,29.70,ESE,112,0.0,0.0,75,0.00,,,0.00,WUHU21623XXSP,2013-02-08 15:11:00,
2013-02-08 09:16:00,24.6,17.8,29.71,ESE,112,0.0,0.0,75,0.00,,,0.00,WUHU21623XXSP,2013-02-08 15:16:00,
2013-02-08 09:21:00,25.0,17.8,29.70,East,90,0.0,0.0,74,0.00,,,0.00,WUHU21623XXSP,2013-02-08 15:21:00,
2013-02-08 09:26:00,25.2,18.0,29.70,East,90,0.0,0.0,74,0.00,,,0.00,WUHU21623XXSP,2013-02-08 15:26:00,
2013-02-08 09:31:00,25.3,18.1,29.69,East,90,0.0,0.0,74,0.00,,,0.00,WUHU21623XXSP,2013-02-08 15:31:00,
2013-02-08 09:36:00,25.5,18.3,29.70,East,90,0.0,0.0,74,0.00,,,0.00,WUHU21623XXSP,2013-02-08 15:36:00,
2013-02-08 09:41:00,25.5,18.3,29.69,ESE,112,0.0,0.0,74,0.00,,,0.00,WUHU21623XXSP,2013-02-08 15:41:00,
2013-02-08 09:46:00,25.5,18.3,29.69,ESE,112,0.0,0.0,74,0.00,,,0.00,WUHU21623XXSP,2013-02-08 15:46:00,
2013-02-08 09:51:00,25.7,18.5,29.69,ESE,112,0.0,0.0,74,0.00,,,0.00,WUHU21623XXSP,2013-02-08 15:51:00,
2013-02-08 09:56:00,25.9,18.7,29.69,ESE,112,0.0,0.0,74,0.00,,,0.00,WUHU21623XXSP,2013-02-08 15:56:00,
2013-02-08 10:01:00,25.9,18.4,29.70,ESE,112,0.0,0.0,73,0.00,,,0.00,WUHU21623XXSP,2013-02-08 16:01:00,
2013-02-08 10:06:00,26.2,18.7,29.69,ESE,112,0.0,0.0,73,0.00,,,0.00,WUHU21623XXSP,2013-02-08 16:06:00,
2013-02-08 10:11:00,26.2,18.7,29.70,ESE,112,0.0,0.0,73,0.00,,,0.00,WUHU21623XXSP,2013-02-08 16:11:00,
2013-02-08 10:16:00,26.2,18.4,29.70,ESE,112,1.3,1.3,72,0.00,,,0.00,WUHU21623XXSP,2013-02-08 16:16:00,
2013-02-08 10:21:00,26.2,18.4,29.70,ESE,112,0.0,1.3,72,0.00,,,0.00,WUHU21623XXSP,2013-02-08 16:21:00,
2013-02-08 10:26:00,26.4,18.9,29.70,ESE,112,0.0,0.0,73,0.00,,,0.00,WUHU21623XXSP,2013-02-08 16:26:00,
2013-02-08 10:32:00,26.4,18.6,29.71,ESE,112,0.0,4.3,72,0.00,,,0.00,WUHU21623XXSP,2013-02-08 16:32:00,
2013-02-08 10:37:00,26.6,18.4,29.71,ESE,112,0.0,4.3,71,0.00,,,0.00,WUHU21623XXSP,2013-02-08 16:37:00,
2013-02-08 10:42:00,26.6,18.4,29.71,ESE,112,0.0,3.4,71,0.00,,,0.00,WUHU21623XXSP,2013-02-08 16:42:00,
2013-02-08 10:47:00,26.6,18.4,29.71,ESE,112,0.0,4.3,71,0.00,,,0.00,WUHU21623XXSP,2013-02-08 16:47:00,
2013-02-08 10:52:00,26.4,18.3,29.71,ESE,112,0.0,4.3,71,0.00,,,0.00,WUHU21623XXSP,2013-02-08 16:52:00,
2013-02-08 10:57:00,26.6,18.4,29.71,ESE,112,4.7,4.7,71,0.00,,,0.00,WUHU21623XXSP,2013-02-08 16:57:00,
2013-02-08 11:02:00,26.4,18.0,29.71,ESE,112,0.0,4.7,70,0.00,,,0.00,WUHU21623XXSP,2013-02-08 17:02:00,
2013-02-08 11:07:00,26.4,18.0,29.71,ESE,112,2.2,3.4,70,0.00,,,0.00,WUHU21623XXSP,2013-02-08 17:07:00,
2013-02-08 11:12:00,26.4,18.0,29.70,ESE,112,6.7,6.7,70,0.00,,,0.00,WUHU21623XXSP,2013-02-08 17:12:00,
2013-02-08 11:17:00,26.4,17.6,29.70,ESE,112,7.8,7.8,69,0.00,,,0.00,WUHU21623XXSP,2013-02-08 17:17:00,
2013-02-08 11:22:00,26.4,17.6,29.70,ESE,112,6.7,7.8,69,0.00,,,0.00,WUHU21623XXSP,2013-02-08 17:22:00,
2013-02-08 11:27:00,26.6,17.8,29.70,ESE,112,5.1,7.8,69,0.00,,,0.00,WUHU21623XXSP,2013-02-08 17:27:00,
2013-02-08 11:32:00,26.6,17.8,29.70,ESE,112,4.7,5.8,69,0.00,,,0.00,WUHU21623XXSP,2013-02-08 17:32:00,
2013-02-08 11:37:00,26.8,18.0,29.70,ESE,112,7.2,7.2,69,0.00,,,0.00,WUHU21623XXSP,2013-02-08 17:37:00,
2013-02-08 11:42:00,27.1,18.3,29.70,ESE,112,6.3,7.8,69,0.00,,,0.00,WUHU21623XXSP,2013-02-08 17:42:00,
2013-02-08 11:47:00,27.1,18.3,29.70,ESE,112,5.4,7.8,69,0.00,,,0.00,WUHU21623XXSP,2013-02-08 17:47:00,
2013-02-08 11:52:00,27.5,18.3,29.70,ESE,112,5.6,7.2,68,0.00,,,0.00,WUHU21623XXSP,2013-02-08 17:52:00,
2013-02-08 11:58:00,28.0,18.9,29.70,ESE,112,2.7,7.2,68,0.00,,,0.00,WUHU21623XXSP,2013-02-08 17:58:00,
2013-02-08 12:03:00,28.2,18.7,29.70,ESE,112,5.6,5.6,67,0.00,,,0.00,WUHU21623XXSP,2013-02-08 18:03:00,
2013-02-08 12:08:00,28.2,18.3,29.70,ESE,112,4.9,5.6,66,0.00,,,0.00,WUHU21623XXSP,2013-02-08 18:08:00,
2013-02-08 12:13:00,28.4,18.5,29.70,SE,135,5.6,5.6,66,0.00,,,0.00,WUHU21623XXSP,2013-02-08 18:13:00,
2013-02-08 12:18:00,28.6,18.3,29.69,ESE,112,4.0,5.6,65,0.00,,,0.00,WUHU21623XXSP,2013-02-08 18:18:00,
2013-02-08 12:23:00,28.6,18.3,29.69,ESE,112,4.3,5.8,65,0.00,,,0.00,WUHU21623XXSP,2013-02-08 18:23:00,
2013-02-08 12:28:00,28.6,18.3,29.69,ESE,112,4.0,5.8,65,0.00,,,0.00,WUHU21623XXSP,2013-02-08 18:28:00,
2013-02-08 12:33:00,28.6,18.3,29.69,ESE,112,4.7,5.1,64,0.00,,,0.00,WUHU21623XXSP,2013-02-08 18:33:00,
2013-02-08 12:38:00,28.2,18.0,29.69,ESE,112,2.5,4.7,65,0.00,,,0.00,WUHU21623XXSP,2013-02-08 18:38:00,
2013-02-08 12:43:00,28.6,17.9,29.69,SE,135,6.5,6.5,64,0.00,,,0.00,WUHU21623XXSP,2013-02-08 18:43:00,
2013-02-08 12:48:00,28.8,17.9,29.69,ESE,112,5.6,6.5,64,0.00,,,0.00,WUHU21623XXSP,2013-02-08 18:48:00,
2013-02-08 12:53:00,29.5,18.8,29.69,SE,135,6.0,6.3,64,0.00,,,0.00,WUHU21623XXSP,2013-02-08 18:53:00,
2013-02-08 12:58:00,30.0,18.9,29.69,SE,135,5.6,6.3,63,0.00,,,0.00,WUHU21623XXSP,2013-02-08 18:58:00,
2013-02-08 13:03:00,30.0,18.5,29.69,ESE,112,3.8,6.0,62,0.00,,,0.00,WUHU21623XXSP,2013-02-08 19:03:00,
2013-02-08 13:08:00,30.0,18.5,29.69,ESE,112,3.4,6.0,62,0.00,,,0.00,WUHU21623XXSP,2013-02-08 19:08:00,
2013-02-08 13:13:00,30.0,18.5,29.69,ESE,112,2.7,4.0,62,0.00,,,0.00,WUHU21623XXSP,2013-02-08 19:13:00,
2013-02-08 13:18:00,30.6,19.0,29.69,ESE,112,3.4,4.5,62,0.00,,,0.00,WUHU21623XXSP,2013-02-08 19:18:00,
2013-02-08 13:23:00,30.7,19.0,29.69,ESE,112,1.8,4.5,62,0.00,,,0.00,WUHU21623XXSP,2013-02-08 19:23:00,
2013-02-08 13:28:00,30.9,19.4,29.69,South,180,3.6,3.6,62,0.00,,,0.00,WUHU21623XXSP,2013-02-08 19:28:00,
2013-02-08 13:33:00,31.6,20.1,29.68,South,180,0.0,3.6,62,0.00,,,0.00,WUHU21623XXSP,2013-02-08 19:33:00,
2013-02-08 13:39:00,32.5,21.0,29.68,South,180,0.0,2.9,62,0.00,,,0.00,WUHU21623XXSP,2013-02-08 19:39:00,
2013-02-08 13:44:00,32.9,21.3,29.68,South,180,0.0,0.0,61,0.00,,,0.00,WUHU21623XXSP,2013-02-08 19:44:00,
2013-02-08 13:49:00,32.4,20.1,29.68,ESE,112,0.0,0.0,60,0.00,,,0.00,WUHU21623XXSP,2013-02-08 19:49:00,
2013-02-08 13:54:00,31.8,19.9,29.68,SE,135,0.0,0.0,61,0.00,,,0.00,WUHU21623XXSP,2013-02-08 19:54:00,
2013-02-08 13:59:00,31.8,19.9,29.67,SE,135,0.0,0.0,61,0.00,,,0.00,WUHU21623XXSP,2013-02-08 19:59:00,
2013-02-08 14:04:00,31.8,19.9,29.66,SSE,157,0.0,2.9,61,0.00,,,0.00,WUHU21623XXSP,2013-02-08 20:04:00,
2013-02-08 14:09:00,31.8,19.9,29.66,SSE,157,0.0,2.9,61,0.00,,,0.00,WUHU21623XXSP,2013-02-08 20:09:00,
2013-02-08 14:14:00,31.6,19.9,29.66,South,180,0.0,0.0,60,0.00,,,0.00,WUHU21623XXSP,2013-02-08 20:14:00,
2013-02-08 14:19:00,30.6,18.7,29.66,SE,135,0.0,2.0,61,0.00,,,0.00,WUHU21623XXSP,2013-02-08 20:19:00,
2013-02-08 14:24:00,30.0,18.2,29.66,SE,135,0.0,2.0,61,0.00,,,0.00,WUHU21623XXSP,2013-02-08 20:24:00,
2013-02-08 14:29:00,29.7,17.8,29.66,South,180,0.0,0.0,61,0.00,,,0.00,WUHU21623XXSP,2013-02-08 20:29:00,
2013-02-08 14:34:00,28.8,17.4,29.66,SSE,157,0.0,0.0,62,0.00,,,0.00,WUHU21623XXSP,2013-02-08 20:34:00,
2013-02-08 14:39:00,29.1,17.9,29.66,SSE,157,0.0,0.0,63,0.00,,,0.00,WUHU21623XXSP,2013-02-08 20:39:00,
2013-02-08 14:44:00,29.5,18.4,29.66,ESE,112,0.0,0.0,63,0.00,,,0.00,WUHU21623XXSP,2013-02-08 20:44:00,
2013-02-08 14:49:00,29.7,18.7,29.66,ESE,112,0.0,0.0,63,0.00,,,0.00,WUHU21623XXSP,2013-02-08 20:49:00,
2013-02-08 14:54:00,29.3,18.4,29.66,SE,135,0.0,0.0,63,0.00,,,0.00,WUHU21623XXSP,2013-02-08 20:54:00,
2013-02-08 14:59:00,29.3,18.6,29.66,South,180,0.0,4.0,64,0.00,,,0.00,WUHU21623XXSP,2013-02-08 20:59:00,
2013-02-08 15:04:00,29.5,18.6,29.66,South,180,0.0,4.0,64,0.00,,,0.00,WUHU21623XXSP,2013-02-08 21:04:00,
2013-02-08 15:09:00,29.7,18.8,29.66,South,180,0.0,0.0,64,0.00,,,0.00,WUHU21623XXSP,2013-02-08 21:09:00,
2013-02-08 15:14:00,29.1,18.8,29.66,East,90,2.2,2.2,64,0.00,,,0.00,WUHU21623XXSP,2013-02-08 21:14:00,
2013-02-08 15:19:00,28.8,18.1,29.66,ESE,112,3.6,3.6,64,0.00,,,0.00,WUHU21623XXSP,2013-02-08 21:19:00,
2013-02-08 15:24:00,28.2,17.6,29.66,ESE,112,0.0,3.6,64,0.00,,,0.00,WUHU21623XXSP,2013-02-08 21:24:00,
2013-02-08 15:29:00,27.3,17.1,29.66,ESE,112,0.0,0.0,65,0.00,,,0.00,WUHU21623XXSP,2013-02-08 21:29:00,
2013-02-08 15:34:00,27.0,17.1,29.66,ESE,112,0.0,0.0,66,0.00,,,0.00,WUHU21623XXSP,2013-02-08 21:34:00,
2013-02-08 15:40:00,26.4,16.5,29.65,SE,135,0.0,0.0,66,0.00,,,0.00,WUHU21623XXSP,2013-02-08 21:40:00,
2013-02-08 15:45:00,26.2,16.7,29.65,ESE,112,0.0,0.0,67,0.00,,,0.00,WUHU21623XXSP,2013-02-08 21:45:00,
2013-02-08 15:50:00,25.9,16.4,29.65,ESE,112,2.2,2.2,67,0.00,,,0.00,WUHU21623XXSP,2013-02-08 21:50:00,
2013-02-08 15:55:00,25.5,16.4,29.65,ESE,112,0.0,2.2,68,0.00,,,0.00,WUHU21623XXSP,2013-02-08 21:55:00,
2013-02-08 16:00:00,25.5,16.4,29.65,SE,135,0.0,0.0,68,0.00,,,0.00,WUHU21623XXSP,2013-02-08 22:00:00,
2013-02-08 16:05:00,25.5,16.4,29.65,ESE,112,0.0,0.0,68,0.00,,,0.00,WUHU21623XXSP,2013-02-08 22:05:00,
2013-02-08 16:10:00,25.5,16.4,29.65,ESE,112,0.0,0.0,68,0.00,,,0.00,WUHU21623XXSP,2013-02-08 22:10:00,
2013-02-08 16:15:00,25.2,16.3,29.65,ESE,112,0.0,0.0,69,0.00,,,0.00,WUHU21623XXSP,2013-02-08 22:15:00,
2013-02-08 16:20:00,25.0,16.2,29.65,ESE,112,0.0,0.0,69,0.00,,,0.00,WUHU21623XXSP,2013-02-08 22:20:00,
2013-02-08 16:25:00,25.2,16.7,29.65,SSE,157,0.0,0.0,70,0.00,,,0.00,WUHU21623XXSP,2013-02-08 22:25:00,
2013-02-08 16:30:00,25.3,16.9,29.64,ESE,112,0.0,0.0,70,0.00,,,0.00,WUHU21623XXSP,2013-02-08 22:30:00,
2013-02-08 16:35:00,25.3,16.9,29.64,SSE,157,0.0,2.0,70,0.00,,,0.00,WUHU21623XXSP,2013-02-08 22:35:00,
2013-02-08 16:40:00,25.2,16.9,29.64,ESE,112,0.0,2.0,70,0.00,,,0.00,WUHU21623XXSP,2013-02-08 22:40:00,
2013-02-08 16:45:00,25.3,16.9,29.64,ESE,112,0.0,0.0,70,0.00,,,0.00,WUHU21623XXSP,2013-02-08 22:45:00,
2013-02-08 16:50:00,25.3,17.2,29.64,East,90,0.0,0.0,71,0.00,,,0.00,WUHU21623XXSP,2013-02-08 22:50:00,
2013-02-08 16:55:00,25.2,17.0,29.64,SE,135,0.0,0.0,71,0.00,,,0.00,WUHU21623XXSP,2013-02-08 22:55:00,
2013-02-08 17:00:00,25.0,16.8,29.64,ESE,112,0.0,0.0,71,0.00,,,0.00,WUHU21623XXSP,2013-02-08 23:00:00,
2013-02-08 17:05:00,24.6,16.8,29.63,ESE,112,0.0,0.0,72,0.00,,,0.00,WUHU21623XXSP,2013-02-08 23:05:00,
2013-02-08 17:10:00,24.4,16.6,29.62,SSW,202,0.0,0.0,72,0.00,,,0.00,WUHU21623XXSP,2013-02-08 23:10:00,
2013-02-08 17:15:00,24.4,17.0,29.63,ESE,112,0.0,0.0,73,0.00,,,0.00,WUHU21623XXSP,2013-02-08 23:15:00,
2013-02-08 17:20:00,24.1,16.6,29.63,ESE,112,0.0,0.0,73,0.00,,,0.00,WUHU21623XXSP,2013-02-08 23:20:00,
2013-02-08 17:25:00,23.9,16.5,29.63,ESE,112,0.0,0.0,73,0.00,,,0.00,WUHU21623XXSP,2013-02-08 23:25:00,
2013-02-08 17:30:00,23.7,16.3,29.63,ESE,112,0.0,0.0,73,0.00,,,0.00,WUHU21623XXSP,2013-02-08 23:30:00,
2013-02-08 17:35:00,23.7,16.6,29.62,ESE,112,0.0,0.0,74,0.00,,,0.00,WUHU21623XXSP,2013-02-08 23:35:00,
2013-02-08 17:40:00,23.7,16.6,29.62,SE,135,0.0,0.0,74,0.00,,,0.00,WUHU21623XXSP,2013-02-08 23:40:00,
2013-02-08 17:46:00,23.5,16.8,29.62,SSE,157,1.6,1.6,75,0.00,,,0.00,WUHU21623XXSP,2013-02-08 23:46:00,
2013-02-08 17:51:00,23.5,16.8,29.62,SE,135,0.0,1.6,75,0.00,,,0.00,WUHU21623XXSP,2013-02-08 23:51:00,
2013-02-08 17:56:00,23.5,16.8,29.62,SSE,157,0.0,0.0,75,0.00,,,0.00,WUHU21623XXSP,2013-02-08 23:56:00,
2013-02-08 18:01:00,23.5,16.8,29.62,SSE,157,0.0,0.0,75,0.00,,,0.00,WUHU21623XXSP,2013-02-09 00:01:00,
2013-02-08 18:06:00,23.5,16.8,29.61,SSE,157,0.0,0.0,75,0.00,,,0.00,WUHU21623XXSP,2013-02-09 00:06:00,
2013-02-08 18:11:00,23.5,17.1,29.62,SSE,157,0.0,0.0,76,0.00,,,0.00,WUHU21623XXSP,2013-02-09 00:11:00,
2013-02-08 18:16:00,23.5,17.1,29.62,South,180,0.0,3.6,76,0.00,,,0.00,WUHU21623XXSP,2013-02-09 00:16:00,
2013-02-08 18:21:00,23.5,17.1,29.61,South,180,2.7,3.6,76,0.00,,,0.00,WUHU21623XXSP,2013-02-09 00:21:00,
2013-02-08 18:26:00,23.5,17.1,29.61,SE,135,0.0,2.7,76,0.00,,,0.00,WUHU21623XXSP,2013-02-09 00:26:00,
2013-02-08 18:31:00,23.5,17.1,29.61,ESE,112,0.0,0.0,76,0.00,,,0.00,WUHU21623XXSP,2013-02-09 00:31:00,
2013-02-08 18:36:00,23.5,17.1,29.61,SSE,157,0.0,0.0,76,0.00,,,0.00,WUHU21623XXSP,2013-02-09 00:36:00,
2013-02-08 18:41:00,23.5,17.4,29.61,East,90,0.0,0.0,77,0.00,,,0.00,WUHU21623XXSP,2013-02-09 00:41:00,
2013-02-08 18:46:00,23.5,17.4,29.61,South,180,0.0,0.0,77,0.00,,,0.00,WUHU21623XXSP,2013-02-09 00:46:00,
2013-02-08 18:51:00,23.5,17.4,29.62,South,180,0.0,0.0,77,0.00,,,0.00,WUHU21623XXSP,2013-02-09 00:51:00,
2013-02-08 18:56:00,23.5,17.4,29.61,SSE,157,0.0,0.0,77,0.00,,,0.00,WUHU21623XXSP,2013-02-09 00:56:00,
2013-02-08 19:01:00,23.5,17.4,29.61,South,180,0.0,0.0,77,0.00,,,0.00,WUHU21623XXSP,2013-02-09 01:01:00,
2013-02-08 19:06:00,23.5,17.4,29.61,South,180,0.0,0.0,77,0.00,,,0.00,WUHU21623XXSP,2013-02-09 01:06:00,
2013-02-08 19:11:00,23.7,17.9,29.61,SSE,157,0.0,7.4,78,0.00,,,0.00,WUHU21623XXSP,2013-02-09 01:11:00,
2013-02-08 19:16:00,23.7,17.9,29.61,South,180,0.0,7.4,78,0.00,,,0.00,WUHU21623XXSP,2013-02-09 01:16:00,
2013-02-08 19:21:00,23.7,17.9,29.61,South,180,0.0,0.0,78,0.00,,,0.00,WUHU21623XXSP,2013-02-09 01:21:00,
2013-02-08 19:26:00,23.9,18.0,29.61,South,180,1.3,1.3,78,0.00,,,0.00,WUHU21623XXSP,2013-02-09 01:26:00,
2013-02-08 19:31:00,23.9,18.0,29.61,SSE,157,7.4,7.4,78,0.00,,,0.00,WUHU21623XXSP,2013-02-09 01:31:00,
2013-02-08 19:36:00,24.1,18.2,29.61,South,180,5.6,7.4,78,0.00,,,0.00,WUHU21623XXSP,2013-02-09 01:36:00,
2013-02-08 19:42:00,24.1,18.2,29.61,South,180,6.3,7.2,78,0.00,,,0.00,WUHU21623XXSP,2013-02-09 01:42:00,
2013-02-08 19:47:00,24.1,18.2,29.61,South,180,0.0,7.2,78,0.00,,,0.00,WUHU21623XXSP,2013-02-09 01:47:00,
2013-02-08 19:52:00,24.1,18.2,29.61,South,180,3.8,5.4,78,0.00,,,0.00,WUHU21623XXSP,2013-02-09 01:52:00,
2013-02-08 19:57:00,24.1,18.2,29.61,South,180,7.4,7.4,78,0.00,,,0.00,WUHU21623XXSP,2013-02-09 01:57:00,
2013-02-08 20:02:00,24.3,18.4,29.61,South,180,2.7,7.4,78,0.00,,,0.00,WUHU21623XXSP,2013-02-09 02:02:00,
2013-02-08 20:07:00,24.4,18.6,29.61,SE,135,0.0,7.4,78,0.00,,,0.00,WUHU21623XXSP,2013-02-09 02:07:00,
2013-02-08 20:12:00,24.4,18.6,29.60,ENE,67,0.9,0.9,78,0.00,,,0.00,WUHU21623XXSP,2013-02-09 02:12:00,
2013-02-08 20:17:00,24.4,18.6,29.60,South,180,5.8,6.3,78,0.00,,,0.00,WUHU21623XXSP,2013-02-09 02:17:00,
2013-02-08 20:22:00,24.6,18.6,29.60,South,180,2.9,6.3,78,0.00,,,0.00,WUHU21623XXSP,2013-02-09 02:22:00,
2013-02-08 20:27:00,24.6,18.8,29.60,SSE,157,0.0,2.9,78,0.00,,,0.00,WUHU21623XXSP,2013-02-09 02:27:00,
2013-02-08 20:32:00,24.6,18.8,29.60,South,180,2.5,5.4,78,0.00,,,0.00,WUHU21623XXSP,2013-02-09 02:32:00,
2013-02-08 20:37:00,24.6,18.8,29.59,South,180,1.8,5.4,78,0.00,,,0.00,WUHU21623XXSP,2013-02-09 02:37:00,
2013-02-08 20:42:00,25.0,19.1,29.59,South,180,8.7,8.7,78,0.00,,,0.00,WUHU21623XXSP,2013-02-09 02:42:00,
2013-02-08 20:47:00,25.0,19.1,29.59,South,180,5.1,8.7,78,0.00,,,0.00,WUHU21623XXSP,2013-02-09 02:47:00,
2013-02-08 20:52:00,25.0,19.1,29.59,South,180,7.8,7.8,78,0.00,,,0.00,WUHU21623XXSP,2013-02-09 02:52:00,
2013-02-08 20:57:00,25.2,19.6,29.59,South,180,6.9,7.8,79,0.00,,,0.00,WUHU21623XXSP,2013-02-09 02:57:00,
2013-02-08 21:02:00,25.3,19.4,29.59,South,180,3.1,7.6,78,0.00,,,0.00,WUHU21623XXSP,2013-02-09 03:02:00,
2013-02-08 21:07:00,25.3,19.4,29.58,South,180,4.3,5.6,78,0.00,,,0.00,WUHU21623XXSP,2013-02-09 03:07:00,
2013-02-08 21:12:00,25.3,19.4,29.59,South,180,7.2,7.4,78,0.00,,,0.00,WUHU21623XXSP,2013-02-09 03:12:00,
2013-02-08 21:17:00,25.5,19.6,29.58,South,180,6.7,7.4,78,0.00,,,0.00,WUHU21623XXSP,2013-02-09 03:17:00,
2013-02-08 21:22:00,25.5,19.6,29.58,South,180,8.1,8.1,78,0.00,,,0.00,WUHU21623XXSP,2013-02-09 03:22:00,
2013-02-08 21:27:00,25.5,19.6,29.58,South,180,5.8,8.1,78,0.00,,,0.00,WUHU21623XXSP,2013-02-09 03:27:00,
2013-02-08 21:32:00,25.5,19.6,29.58,South,180,7.8,8.1,78,0.00,,,0.00,WUHU21623XXSP,2013-02-09 03:32:00,
2013-02-08 21:37:00,25.5,19.6,29.58,South,180,8.1,8.1,78,0.00,,,0.00,WUHU21623XXSP,2013-02-09 03:37:00,
2013-02-08 21:43:00,25.5,19.6,29.58,SSW,202,6.3,8.1,78,0.00,,,0.00,WUHU21623XXSP,2013-02-09 03:43:00,
2013-02-08 21:48:00,25.5,19.6,29.58,South,180,5.6,7.8,78,0.00,,,0.00,WUHU21623XXSP,2013-02-09 03:48:00,
2013-02-08 21:53:00,25.5,19.6,29.58,SSW,202,8.9,8.9,78,0.00,,,0.00,WUHU21623XXSP,2013-02-09 03:53:00,
2013-02-08 21:58:00,25.5,19.6,29.58,South,180,7.4,8.9,78,0.00,,,0.00,WUHU21623XXSP,2013-02-09 03:58:00,
2013-02-08 22:03:00,25.5,19.6,29.58,SSW,202,5.6,7.4,78,0.00,,,0.00,WUHU21623XXSP,2013-02-09 04:03:00,
2013-02-08 22:08:00,25.5,19.9,29.58,South,180,7.8,7.8,79,0.00,,,0.00,WUHU21623XXSP,2013-02-09 04:08:00,
2013-02-08 22:13:00,25.5,19.9,29.58,South,180,7.6,8.3,79,0.00,,,0.00,WUHU21623XXSP,2013-02-09 04:13:00,
2013-02-08 22:18:00,25.5,19.9,29.58,SSW,202,6.9,8.3,79,0.00,,,0.00,WUHU21623XXSP,2013-02-09 04:18:00,
2013-02-08 22:23:00,25.5,19.6,29.58,South,180,7.4,9.4,78,0.00,,,0.00,WUHU21623XXSP,2013-02-09 04:23:00,
2013-02-08 22:28:00,25.5,19.6,29.58,South,180,6.5,9.4,78,0.00,,,0.00,WUHU21623XXSP,2013-02-09 04:28:00,
2013-02-08 22:33:00,25.5,19.6,29.58,South,180,6.0,6.5,78,0.00,,,0.00,WUHU21623XXSP,2013-02-09 04:33:00,
2013-02-08 22:38:00,25.5,19.6,29.57,SSW,202,6.9,11.2,78,0.00,,,0.00,WUHU21623XXSP,2013-02-09 04:38:00,
2013-02-08 22:43:00,25.5,19.6,29.57,SSW,202,8.3,11.2,78,0.00,,,0.00,WUHU21623XXSP,2013-02-09 04:43:00,
2013-02-08 22:48:00,25.5,19.9,29.57,SSW,202,7.4,8.3,79,0.00,,,0.00,WUHU21623XXSP,2013-02-09 04:48:00,
2013-02-08 22:53:00,25.5,19.9,29.57,South,180,5.4,8.3,79,0.00,,,0.00,WUHU21623XXSP,2013-02-09 04:53:00,
2013-02-08 22:58:00,25.5,19.9,29.57,South,180,4.5,6.7,79,0.00,,,0.00,WUHU21623XXSP,2013-02-09 04:58:00,
2013-02-08 23:00:00,25.5,19.9,29.57,South,180,4.7,6.7,79,0.00,,,0.00,WUHU21623XXSP,2013-02-09 05:00:00,
2013-02-08 23:01:00,25.5,19.9,29.58,South,180,4.7,5.4,79,0.00,,,0.00,WUHU21623XXSP,2013-02-09 05:01:00,
2013-02-08 23:06:00,25.5,19.9,29.58,SSW,202,7.8,7.8,79,0.00,,,0.00,WUHU21623XXSP,2013-02-09 05:06:00,
2013-02-08 23:11:00,25.5,19.9,29.58,SSW,202,6.7,7.8,79,0.00,,,0.00,WUHU21623XXSP,2013-02-09 05:11:00,
2013-02-08 23:16:00,25.5,19.9,29.58,SSW,202,7.6,7.6,79,0.00,,,0.00,WUHU21623XXSP,2013-02-09 05:16:00,
2013-02-08 23:21:00,25.5,19.9,29.57,SSW,202,5.8,7.6,79,0.00,,,0.00,WUHU21623XXSP,2013-02-09 05:21:00,
2013-02-08 23:27:00,25.5,19.9,29.58,SSW,202,9.2,9.2,79,0.00,,,0.00,WUHU21623XXSP,2013-02-09 05:27:00,
2013-02-08 23:32:00,25.7,20.1,29.58,South,180,6.3,9.2,80,0.00,,,0.00,WUHU21623XXSP,2013-02-09 05:32:00,
2013-02-08 23:37:00,25.7,20.4,29.57,South,180,4.7,6.9,80,0.00,,,0.00,WUHU21623XXSP,2013-02-09 05:37:00,
2013-02-08 23:42:00,25.7,20.4,29.58,South,180,6.0,7.6,80,0.00,,,0.00,WUHU21623XXSP,2013-02-09 05:42:00,
2013-02-08 23:47:00,25.7,20.1,29.58,South,180,7.6,7.8,79,0.00,,,0.00,WUHU21623XXSP,2013-02-09 05:47:00,
2013-02-08 23:52:00,25.7,20.1,29.58,South,180,6.5,7.6,79,0.00,,,0.00,WUHU21623XXSP,2013-02-09 05:52:00,
2013-02-08 23:57:00,25.7,20.4,29.57,South,180,7.2,8.9,80,0.00,,,0.00,WUHU21623XXSP,2013-02-09 05:57:00,